Location: Carrières
(48.9495°N, 2.0407°E)
Time: 11:31:21
(UTC+00:00)

Transit 2A Rocket - Pass Details

Date: 24 April 2024
Orbit: 584 x 909 km, 66.7° (Epoch: 25 May)

Event Time Altitude Azimuth Distance (km) Brightness Sun altitude
Rises 12:04:04 0° 247° (WSW) 2,926 8.3 54.1°
Reaches altitude 10° 12:06:29 10° 258° (WSW) 2,064 7.5 54.0°
Maximum altitude 12:10:39 31° 321° (NW) 1,214 6.2 53.9°
Drops below altitude 10° 12:15:10 10° 23° (NNE) 2,255 7.2 53.8°
Sets 12:17:56 0° 34° (NE) 3,244 7.9 53.7°
